📊 John's Weather Station

Last reading: 2021-01-17 09:55:59

TEMPERATURE

--

Temperature 20 readings
Min Max Average
23.23 °C 24.77 °C 23.76 °C

HUMIDITY

--

Humidity 20 readings
Min Max Average
55.97 % 57.06 % 56.3 %

View Latest 20 Readings

ID Sensor Location Temp Humid Bar Timestamp
47479 BME280 Lounge 24.77 56.45 1002.81 2021-01-17 09:55:59
47478 BME280 Lounge 24.62 56.43 1002.95 2021-01-17 09:45:53
47477 BME280 Lounge 24.50 56.54 1003.16 2021-01-17 09:35:46
47476 BME280 Lounge 24.38 56.80 1003.14 2021-01-17 09:25:40
47475 BME280 Lounge 24.24 57.06 1003.22 2021-01-17 09:15:38
47474 BME280 Lounge 24.11 56.82 1003.32 2021-01-17 09:05:37
47473 BME280 Lounge 23.95 56.51 1003.37 2021-01-17 08:55:34
47472 BME280 Lounge 23.75 56.54 1003.35 2021-01-17 08:45:30
47471 BME280 Lounge 23.56 56.50 1003.40 2021-01-17 08:35:29
47470 BME280 Lounge 23.34 56.18 1003.27 2021-01-17 08:25:28
47469 BME280 Lounge 23.29 56.07 1003.23 2021-01-17 08:15:27
47468 BME280 Lounge 23.23 55.97 1003.29 2021-01-17 08:05:23
47467 BME280 Lounge 23.26 56.03 1003.30 2021-01-17 07:55:19
47466 BME280 Lounge 23.29 55.97 1003.33 2021-01-17 07:45:18
47465 BME280 Lounge 23.34 56.01 1003.37 2021-01-17 07:35:17
47464 BME280 Lounge 23.39 56.01 1003.64 2021-01-17 07:25:16
47463 BME280 Lounge 23.45 56.00 1003.57 2021-01-17 07:15:14
47462 BME280 Lounge 23.50 56.01 1003.51 2021-01-17 07:05:10
47461 BME280 Lounge 23.56 56.02 1003.50 2021-01-17 06:55:09
47460 BME280 Lounge 23.60 56.02 1003.76 2021-01-17 06:45:06